Home   Weather   Phoenix   Past weeks

Flag for USA Past Weather in Phoenix, Arizona, USA — Yesterday and Last 2 Weeks

Now
66 °F

Passing clouds.


Feels Like: 66 °F
Forecast: 45 / 64 °F
Wind: 6 mph from South

Location: Phoenix Sky Harbor International Airport

Current Time: Jan 18, 2017 at 3:32:15 pm

Latest Report: Jan 18, 2017 at 2:51 pm


Visibility: 10 mi

Pressure: 30.01 "Hg

Humidity: 39%

Dew Point: 40 °F

Location of PhoenixLocation

Past Weather in Phoenix — Graph

°F

Phoenix Temperature Yesterday

Maximum temperature yesterday: 63 °F (at 4:51 pm)
Minimum temperature yesterday: 45 °F (at 7:51 am)
Average temperature yesterday: 53 °F

High & Low Weather Summary for the Past Weeks

 TemperatureHumidityPressure
High74 °F (Jan 8, 3:51 pm)90% (Jan 4, 4:51 am)30.32 "Hg (Jan 4, 4:51 am)
Low44 °F (Jan 7, 4:51 am)26% (Jan 6, 2:51 pm)29.78 "Hg (Jan 6, 12:51 am)
Average57 °F59%30.01 "Hg
* Reported Jan 3 1:51 pm — Jan 18 1:51 pm, Phoenix, Weather by CustomWeather, © 2017

Note: Actual official high and low records may vary slightly from our data, if they occured in-between our weather recording intervals... More about our weather records

Advertising

Phoenix Weather History for the Previous 24 Hours

Scroll right to see more
 ConditionsComfort  
Time TempWeatherWind HumidityBarometerVisibility
1:51 pm
Wed, Jan 18
65 °FPassing clouds.6 mph39%30.04 "Hg10 mi
12:51 pm63 °FPassing clouds.7 mph45%30.07 "Hg10 mi
11:51 am60 °FPassing clouds.No wind52%30.12 "Hg10 mi
10:51 am57 °FPassing clouds.6 mph55%30.15 "Hg10 mi
9:51 am52 °FPassing clouds.3 mph64%30.15 "Hg10 mi
8:51 am49 °FPassing clouds.5 mph71%30.14 "Hg10 mi
7:51 am46 °FPassing clouds.No wind79%30.13 "Hg10 mi
6:51 am45 °FClear.3 mph86%30.12 "Hg10 mi
5:51 am46 °FClear.5 mph83%30.09 "Hg10 mi
4:51 am47 °FClear.6 mph83%30.08 "Hg10 mi
3:51 am47 °FClear.6 mph83%30.09 "Hg10 mi
2:51 am48 °FClear.5 mph80%30.09 "Hg10 mi
1:51 am48 °FClear.7 mph80%30.09 "Hg10 mi
12:51 am50 °FClear.5 mph74%30.09 "Hg10 mi
11:51 pm
Tue, Jan 17
51 °FClear.3 mph71%30.09 "Hg10 mi
10:51 pm54 °FClear.No wind64%30.09 "Hg10 mi
9:51 pm55 °FClear.3 mph62%30.07 "Hg10 mi
8:51 pm53 °FClear.5 mph66%30.06 "Hg10 mi
7:51 pm55 °FClear.5 mph62%30.04 "Hg10 mi
6:51 pm57 °FPassing clouds.6 mph60%30.03 "Hg10 mi
5:51 pm60 °FPassing clouds.7 mph52%30.01 "Hg10 mi
4:51 pm63 °FScattered clouds.6 mph45%30.00 "Hg10 mi
3:51 pm62 °FPartly sunny.3 mph46%30.00 "Hg10 mi
Weather by CustomWeather, © 2017

See weather overviewHow to use our weather pages